Cas;Teplota [C];Tlak [hPa];Svetlo [lux];Rychlost vetru [km/h];Smer vetru [stupne]
2022-06-16 00:00:02;17.27;1011.82;11;0;0
2022-06-16 00:01:02;17.33;1011.81;12;0;0
2022-06-16 00:02:01;17.2;1011.82;11;0;0
2022-06-16 00:03:01;17.15;1011.78;10;0;0
2022-06-16 00:04:01;17.23;1011.74;11;0;0
2022-06-16 00:05:01;17.15;1011.81;11;0;0
2022-06-16 00:06:01;17.12;1011.82;11;0;0
2022-06-16 00:07:01;17.03;1011.83;11;0;0
2022-06-16 00:08:01;17.08;1011.74;12;0;0
2022-06-16 00:09:01;17.11;1011.77;10;0;0
2022-06-16 00:10:01;17.03;1011.77;11;0;0
2022-06-16 00:11:01;17;1011.75;11;0;0
2022-06-16 00:12:02;17.03;1011.78;12;0;0
2022-06-16 00:13:01;17.07;1011.71;11;0;0
2022-06-16 00:14:01;16.88;1011.8;12;0;0
2022-06-16 00:15:01;16.83;1011.75;11;0;0
2022-06-16 00:16:01;16.92;1011.78;11;0;0
2022-06-16 00:17:01;16.98;1011.79;11;0;0
2022-06-16 00:18:01;16.9;1011.76;11;0;0
2022-06-16 00:19:01;16.79;1011.74;10;0;0
2022-06-16 00:20:01;16.82;1011.78;11;0;0
2022-06-16 00:21:01;16.81;1011.82;11;0;0
2022-06-16 00:22:01;16.65;1011.83;11;0;0
2022-06-16 00:23:01;16.73;1011.81;11;0;0
2022-06-16 00:24:01;16.82;1011.81;11;0;0
2022-06-16 00:25:01;16.71;1011.83;10;0;0
2022-06-16 00:26:01;16.72;1011.88;10;0;0
2022-06-16 00:27:01;16.53;1011.85;11;0;0
2022-06-16 00:28:01;16.75;1011.85;11;0;0
2022-06-16 00:29:02;16.66;1011.84;11;0;0
2022-06-16 00:30:01;16.5;1011.81;10;0;0
2022-06-16 00:31:01;16.57;1011.84;11;0;0
2022-06-16 00:32:01;16.63;1011.92;11;0;0
2022-06-16 00:33:01;16.63;1011.92;11;0;0
2022-06-16 00:34:01;16.57;1012.02;11;0;0
2022-06-16 00:35:01;16.39;1012.03;11;0;0
2022-06-16 00:36:01;16.43;1012.01;11;0;0
2022-06-16 00:37:01;16.49;1012.01;11;0;0
2022-06-16 00:38:01;16.37;1011.95;11;0;0
2022-06-16 00:39:01;16.3;1011.93;11;0;0
2022-06-16 00:40:01;16.44;1011.99;11;0;0
2022-06-16 00:41:01;16.47;1011.9;11;0;0
2022-06-16 00:42:01;16.34;1011.91;10;0;0
2022-06-16 00:43:01;16.24;1011.92;10;0;0
2022-06-16 00:44:02;16.27;1011.99;11;0;0
2022-06-16 00:45:01;16.36;1011.97;11;0;0
2022-06-16 00:46:02;16.17;1011.96;11;0;0
2022-06-16 00:47:01;16.04;1011.98;11;0;0
2022-06-16 00:48:01;16.03;1011.95;11;0;0
2022-06-16 00:49:01;16.07;1011.93;11;0;0
2022-06-16 00:50:01;16.04;1011.93;10;0;0
2022-06-16 00:51:01;16.08;1011.9;11;0;0
2022-06-16 00:52:01;16.04;1011.81;11;0;0
2022-06-16 00:53:01;16.06;1011.83;10;0;0
2022-06-16 00:54:01;15.99;1011.73;10;0;0
2022-06-16 00:55:01;15.89;1011.79;10;0;0
2022-06-16 00:56:01;15.99;1011.74;10;0;0
2022-06-16 00:57:01;15.89;1011.84;11;0;0
2022-06-16 00:58:01;15.96;1011.89;11;0;0
2022-06-16 00:59:01;15.81;1011.87;11;0;0
2022-06-16 01:00:01;15.86;1011.87;10;0;0
2022-06-16 01:01:01;15.86;1011.85;10;0;0
2022-06-16 01:02:01;15.96;1011.78;11;0;0
2022-06-16 01:03:02;15.83;1011.84;10;0;0
2022-06-16 01:04:01;15.72;1011.82;11;0;0
2022-06-16 01:05:01;15.8;1011.85;10;0;0
2022-06-16 01:06:01;15.8;1011.88;10;0;0
2022-06-16 01:07:01;15.57;1011.81;9;0;0
2022-06-16 01:08:01;15.66;1011.81;10;0;0
2022-06-16 01:09:01;15.67;1011.88;10;0;0
2022-06-16 01:10:01;15.51;1011.89;10;0;0
2022-06-16 01:11:01;15.57;1011.92;10;0;0
2022-06-16 01:12:01;15.55;1011.86;10;0;0
2022-06-16 01:13:01;15.5;1011.88;10;0;0
2022-06-16 01:14:01;15.57;1011.85;10;0;0
2022-06-16 01:15:02;15.59;1011.89;9;0;0
2022-06-16 01:16:01;15.58;1011.89;10;0;0
2022-06-16 01:17:01;15.43;1011.84;10;0;0
2022-06-16 01:18:01;15.52;1011.86;10;0;0
2022-06-16 01:19:01;15.44;1011.87;10;0;0
2022-06-16 01:20:01;15.4;1011.84;10;0;0
2022-06-16 01:21:01;15.41;1011.82;11;0;0
2022-06-16 01:22:01;15.51;1011.76;10;0;0
2022-06-16 01:23:01;15.51;1011.75;10;0;0
2022-06-16 01:24:01;15.5;1011.72;9;0;0
2022-06-16 01:25:01;15.53;1011.69;9;0;0
2022-06-16 01:26:01;15.59;1011.73;10;0;0
2022-06-16 01:27:01;15.54;1011.73;10;0;0
2022-06-16 01:28:01;15.47;1011.77;10;0;0
2022-06-16 01:29:01;15.35;1011.73;10;0;0
2022-06-16 01:30:01;15.35;1011.73;10;0;0
2022-06-16 01:31:01;15.43;1011.7;9;0;0
2022-06-16 01:32:01;15.38;1011.75;10;0;0
2022-06-16 01:33:01;15.48;1011.77;10;0;0
2022-06-16 01:34:01;15.41;1011.8;9;0;0
2022-06-16 01:35:01;15.36;1011.76;10;0;0
2022-06-16 01:36:01;15.37;1011.78;9;0;0
2022-06-16 01:37:02;15.26;1011.75;10;0;0
2022-06-16 01:38:01;15.25;1011.8;9;0;0
2022-06-16 01:39:01;15.13;1011.77;9;0;0
2022-06-16 01:40:01;15.2;1011.79;10;0;0
2022-06-16 01:41:01;15.23;1011.7;10;0;0
2022-06-16 01:42:01;15.18;1011.77;9;0;0
2022-06-16 01:43:02;15.25;1011.79;10;0;0
2022-06-16 01:44:01;15.13;1011.75;9;0;0
2022-06-16 01:45:01;14.99;1011.7;9;0;0
2022-06-16 01:46:02;15.05;1011.75;10;0;0
2022-06-16 01:47:01;15.05;1011.71;10;0;0
2022-06-16 01:48:01;15.14;1011.75;9;0;0
2022-06-16 01:49:01;15.24;1011.72;10;0;0
2022-06-16 01:50:02;15.02;1011.75;10;0;0
2022-06-16 01:51:01;14.93;1011.71;10;0;0
2022-06-16 01:52:02;15.14;1011.7;10;0;0
2022-06-16 01:53:01;15.11;1011.75;9;0;0
2022-06-16 01:54:01;15.05;1011.67;10;0;0
2022-06-16 01:55:01;15.01;1011.7;10;0;0
2022-06-16 01:56:01;15.23;1011.73;9;0;0
2022-06-16 01:57:01;15.02;1011.75;10;0;0
2022-06-16 01:58:01;15.02;1011.66;9;0;0
2022-06-16 01:59:01;14.96;1011.68;10;0;0
2022-06-16 02:00:01;14.92;1011.74;10;0;0
2022-06-16 02:01:01;14.91;1011.77;9;0;0
2022-06-16 02:02:01;15.1;1011.75;10;0;0
2022-06-16 02:03:02;14.95;1011.68;9;0;0
2022-06-16 02:04:01;14.84;1011.68;9;0;0
2022-06-16 02:05:01;14.89;1011.71;9;0;0
2022-06-16 02:06:01;14.8;1011.68;9;0;0
2022-06-16 02:07:01;14.75;1011.68;9;0;0
2022-06-16 02:08:01;14.72;1011.73;9;0;0
2022-06-16 02:09:01;14.75;1011.78;10;0;0
2022-06-16 02:10:01;14.87;1011.76;9;0;0
2022-06-16 02:11:01;14.55;1011.78;9;0;0
2022-06-16 02:12:02;14.67;1011.77;9;0;0
2022-06-16 02:13:01;14.64;1011.75;9;0;0
2022-06-16 02:14:01;14.76;1011.74;9;0;0
2022-06-16 02:15:01;14.69;1011.81;9;0;0
2022-06-16 02:16:01;14.7;1011.78;9;0;0
2022-06-16 02:17:01;14.5;1011.78;9;0;0
2022-06-16 02:18:01;14.46;1011.78;9;0;0
2022-06-16 02:19:01;14.55;1011.75;9;0;0
2022-06-16 02:20:01;14.47;1011.75;8;0;0
2022-06-16 02:21:01;14.67;1011.73;9;0;0
2022-06-16 02:22:01;14.59;1011.72;8;0;0
2022-06-16 02:23:02;14.47;1011.71;9;0;0
2022-06-16 02:24:01;14.46;1011.81;9;0;0
2022-06-16 02:25:01;14.58;1011.81;9;0;0
2022-06-16 02:26:01;14.49;1011.8;9;0;0
2022-06-16 02:27:01;14.43;1011.81;9;0;0
2022-06-16 02:28:01;14.4;1011.79;9;0;0
2022-06-16 02:29:01;14.45;1011.82;9;0;0
2022-06-16 02:30:01;14.45;1011.77;9;0;0
2022-06-16 02:31:01;14.3;1011.78;9;0;0
2022-06-16 02:32:01;14.35;1011.79;9;0;0
2022-06-16 02:33:01;14.31;1011.81;8;0;0
2022-06-16 02:34:01;14.36;1011.87;9;0;0
2022-06-16 02:35:01;14.29;1011.92;9;0;0
2022-06-16 02:36:01;14.36;1011.95;9;0;0
2022-06-16 02:37:01;14.23;1011.88;8;0;0
2022-06-16 02:38:01;14.34;1011.89;9;0;0
2022-06-16 02:39:01;14.37;1011.85;8;0;0
2022-06-16 02:40:02;14.33;1011.96;8;0;0
2022-06-16 02:41:01;14.18;1011.89;10;0;0
2022-06-16 02:42:01;14.3;1011.93;9;0;0
2022-06-16 02:43:02;14.28;1011.93;9;0;0
2022-06-16 02:44:01;14.2;1011.97;9;0;0
2022-06-16 02:45:01;14.19;1011.89;9;0;0
2022-06-16 02:46:01;14.16;1011.94;9;0;0
2022-06-16 02:47:02;14.18;1011.95;9;0;0
2022-06-16 02:48:01;14.19;1011.98;9;0;0
2022-06-16 02:49:01;14.09;1012.02;9;0;0
2022-06-16 02:50:01;14.07;1011.98;9;0;0
2022-06-16 02:51:01;14.22;1011.98;9;0;0
2022-06-16 02:52:01;14.15;1011.97;9;0;0
2022-06-16 02:53:01;14.17;1011.95;9;0;0
2022-06-16 02:54:01;14.08;1011.95;9;0;0
2022-06-16 02:55:02;14.1;1011.87;9;0;0
2022-06-16 02:56:01;14.09;1011.88;9;0;0
2022-06-16 02:57:01;14.06;1011.87;9;0;0
2022-06-16 02:58:02;14.03;1011.89;9;0;0
2022-06-16 02:59:01;14.07;1011.93;9;0;0
2022-06-16 03:00:01;13.95;1011.89;9;0;0
2022-06-16 03:01:01;14.2;1011.9;9;0;0
2022-06-16 03:02:01;14.06;1011.87;8;0;0
2022-06-16 03:03:01;13.98;1011.95;8;0;0
2022-06-16 03:04:01;14.2;1011.91;8;0;0
2022-06-16 03:05:01;14.19;1011.93;8;0;0
2022-06-16 03:06:01;14.23;1011.95;9;0;0
2022-06-16 03:07:02;14.28;1011.95;9;0;0
2022-06-16 03:08:01;14.24;1011.87;9;0;0
2022-06-16 03:09:01;14.02;1011.97;8;0;0
2022-06-16 03:10:01;14.07;1011.94;8;0;0
2022-06-16 03:11:01;14.1;1011.99;9;0;0
2022-06-16 03:12:01;14.01;1012.01;9;0;0
2022-06-16 03:13:01;14.02;1011.97;9;0;0
2022-06-16 03:14:01;14.13;1012.01;9;0;0
2022-06-16 03:15:01;14.14;1012.02;9;0;0
2022-06-16 03:16:01;13.92;1011.96;8;0;0
2022-06-16 03:17:01;13.97;1011.89;9;0;0
2022-06-16 03:18:01;14.19;1012;9;0;0
2022-06-16 03:19:01;14.04;1012.03;9;0;0
2022-06-16 03:20:02;13.88;1011.98;9;0;0
2022-06-16 03:21:01;13.92;1011.98;9;0;0
2022-06-16 03:22:02;14.01;1012.02;9;0;0
2022-06-16 03:23:01;13.91;1011.99;8;0;0
2022-06-16 03:24:01;13.93;1012.02;9;0;0
2022-06-16 03:25:01;13.93;1012.06;9;0;0
2022-06-16 03:26:01;13.98;1012.03;9;0;0
2022-06-16 03:27:01;14;1011.99;9;0;0
2022-06-16 03:28:01;14.02;1011.95;9;0;0
2022-06-16 03:29:01;13.77;1011.98;9;0;0
2022-06-16 03:30:01;13.95;1011.94;8;0;0
2022-06-16 03:31:01;14;1011.98;8;0;0
2022-06-16 03:32:01;13.84;1011.96;9;0;0
2022-06-16 03:33:01;13.85;1012.08;9;0;0
2022-06-16 03:34:01;13.81;1012.11;9;0;0
2022-06-16 03:35:01;13.83;1012.16;9;0;0
2022-06-16 03:36:01;13.95;1012.08;9;0;0
2022-06-16 03:37:01;13.81;1012.11;9;0;0
2022-06-16 03:38:01;13.93;1012.12;9;0;0
2022-06-16 03:39:01;13.7;1012.26;8;0;0
2022-06-16 03:40:01;13.9;1012.18;8;0;0
2022-06-16 03:41:01;13.73;1012.15;8;0;0
2022-06-16 03:42:01;13.63;1012.16;8;0;0
2022-06-16 03:43:01;13.77;1012.21;9;0;0
2022-06-16 03:44:01;13.64;1012.23;9;0;0
2022-06-16 03:45:02;13.63;1012.12;9;0;0
2022-06-16 03:46:01;13.49;1012.19;8;0;0
2022-06-16 03:47:01;13.44;1012.2;8;0;0
2022-06-16 03:48:01;13.37;1012.17;8;0;0
2022-06-16 03:49:01;13.42;1012.18;8;0;0
2022-06-16 03:50:01;13.45;1012.21;9;0;0
2022-06-16 03:51:01;13.46;1012.18;9;0;0
2022-06-16 03:52:01;13.47;1012.17;9;0;0
2022-06-16 03:53:02;13.52;1012.21;9;0;0
2022-06-16 03:54:01;13.55;1012.23;8;0;0
2022-06-16 03:55:01;13.31;1012.28;9;0;0
2022-06-16 03:56:01;13.42;1012.29;9;0;0
2022-06-16 03:57:01;13.38;1012.26;9;0;0
2022-06-16 03:58:02;13.35;1012.26;9;0;0
2022-06-16 03:59:01;13.21;1012.25;9;0;0
2022-06-16 04:00:01;13.17;1012.22;9;0;0
2022-06-16 04:01:01;13.29;1012.22;10;0;0
2022-06-16 04:02:01;13.24;1012.21;9;0;0
2022-06-16 04:03:01;13.18;1012.32;9;0;0
2022-06-16 04:04:01;13.16;1012.41;10;0;0
2022-06-16 04:05:01;13.19;1012.3;9;0;0
2022-06-16 04:06:01;13.11;1012.27;9;0;0
2022-06-16 04:07:01;13.19;1012.38;10;0;0
2022-06-16 04:08:01;13.2;1012.28;10;0;0
2022-06-16 04:09:01;13.15;1012.26;10;0;0
2022-06-16 04:10:02;13.09;1012.32;11;0;0
2022-06-16 04:11:01;12.99;1012.22;12;0;0
2022-06-16 04:12:01;13.1;1012.22;13;0;0
2022-06-16 04:13:01;13.13;1012.27;14;0;0
2022-06-16 04:14:01;13;1012.26;15;0;0
2022-06-16 04:15:01;13.13;1012.41;14;0;0
2022-06-16 04:16:01;13.11;1012.44;15;0;0
2022-06-16 04:17:01;13.17;1012.33;16;0;0
2022-06-16 04:18:01;13;1012.37;19;0;0
2022-06-16 04:19:01;13.06;1012.31;22;0;0
2022-06-16 04:20:01;12.98;1012.34;23;0;0
2022-06-16 04:21:01;13.09;1012.36;25;0;0
2022-06-16 04:22:01;13.06;1012.29;28;0;0
2022-06-16 04:23:01;13.04;1012.31;31;0;0
2022-06-16 04:24:01;12.93;1012.31;36;0;0
2022-06-16 04:25:01;12.91;1012.31;40;0;0
2022-06-16 04:26:01;12.94;1012.38;46;0;0
2022-06-16 04:27:01;13.11;1012.4;53;0;0
2022-06-16 04:28:01;13.03;1012.37;64;0;0
2022-06-16 04:29:01;12.98;1012.39;78;0;0
2022-06-16 04:30:01;12.86;1012.39;91;0;0
2022-06-16 04:31:01;12.83;1012.39;102;0;0
2022-06-16 04:32:01;12.9;1012.34;109;0;0
2022-06-16 04:33:01;12.74;1012.33;110;0;0
2022-06-16 04:34:01;12.83;1012.34;116;0;0
2022-06-16 04:35:01;12.83;1012.36;124;0;0
2022-06-16 04:36:01;12.75;1012.37;131;0;0
2022-06-16 04:37:01;12.72;1012.31;140;0;0
2022-06-16 04:38:01;12.77;1012.39;147;0;0
2022-06-16 04:39:01;12.72;1012.44;156;0;0
2022-06-16 04:40:01;12.78;1012.41;165;0;0
2022-06-16 04:41:01;12.72;1012.43;172;0;0
2022-06-16 04:42:01;12.71;1012.39;180;0;0
2022-06-16 04:43:01;12.8;1012.39;191;0;0
2022-06-16 04:44:01;12.85;1012.34;201;0;0
2022-06-16 04:45:01;12.88;1012.34;213;0;0
2022-06-16 04:46:01;12.83;1012.25;226;0;0
2022-06-16 04:47:01;12.58;1012.32;240;0;0
2022-06-16 04:48:01;12.64;1012.36;256;0;0
2022-06-16 04:49:01;12.8;1012.34;271;0;0
2022-06-16 04:50:01;12.63;1012.33;286;0;0
2022-06-16 04:51:01;12.65;1012.28;302;0;0
2022-06-16 04:52:01;12.78;1012.35;320;0;0
2022-06-16 04:53:01;12.78;1012.36;340;0;0
2022-06-16 04:54:01;12.71;1012.37;364;0;0
2022-06-16 04:55:01;12.71;1012.3;391;0;0
2022-06-16 04:56:01;12.69;1012.33;425;0;0
2022-06-16 04:57:01;12.71;1012.34;464;0;0
2022-06-16 04:58:01;12.66;1012.33;497;0;0
2022-06-16 04:59:01;12.72;1012.36;521;0;0
2022-06-16 05:00:01;12.72;1012.38;538;0;0
2022-06-16 05:01:01;12.79;1012.38;555;0;0
2022-06-16 05:02:01;12.76;1012.4;575;0;0
2022-06-16 05:03:01;12.83;1012.46;599;0;0
2022-06-16 05:04:01;12.78;1012.4;629;0;0
2022-06-16 05:05:01;12.62;1012.41;661;0;0
2022-06-16 05:06:01;12.61;1012.5;692;0;0
2022-06-16 05:07:01;12.52;1012.43;722;0;0
2022-06-16 05:08:01;12.69;1012.39;758;0;0
2022-06-16 05:09:01;12.59;1012.39;792;0;0
2022-06-16 05:10:01;12.53;1012.41;827;0;0
2022-06-16 05:11:01;12.59;1012.45;862;0;0
2022-06-16 05:12:01;12.38;1012.4;897;0;0
2022-06-16 05:13:01;12.66;1012.44;933;0;0
2022-06-16 05:14:01;12.48;1012.5;971;0;0
2022-06-16 05:15:01;12.66;1012.46;1006;0;0
2022-06-16 05:16:01;12.82;1012.43;1041;0;0
2022-06-16 05:17:01;12.65;1012.38;1077;0;0
2022-06-16 05:18:01;12.63;1012.38;1113;0;0
2022-06-16 05:19:01;12.59;1012.36;1142;0;0
2022-06-16 05:20:01;12.64;1012.31;1165;0;0
2022-06-16 05:21:01;12.68;1012.35;1178;0;0
2022-06-16 05:22:01;12.63;1012.38;1184;0;0
2022-06-16 05:23:02;12.78;1012.37;1187;0;0
2022-06-16 05:24:01;12.59;1012.35;1193;0;0
2022-06-16 05:25:01;12.58;1012.28;1202;0;0
2022-06-16 05:26:01;12.7;1012.33;1214;0;0
2022-06-16 05:27:01;12.67;1012.36;1228;0;0
2022-06-16 05:28:01;12.46;1012.31;1243;0;0
2022-06-16 05:29:01;12.54;1012.37;1257;0;0
2022-06-16 05:30:01;12.58;1012.36;1266;0;0
2022-06-16 05:31:01;12.62;1012.31;1274;0;0
2022-06-16 05:32:02;12.55;1012.37;1286;0;0
2022-06-16 05:33:01;12.59;1012.35;1302;0;0
2022-06-16 05:34:01;12.78;1012.35;1316;0;0
2022-06-16 05:35:01;12.7;1012.39;1322;0;0
2022-06-16 05:36:02;12.74;1012.45;1320;0;0
2022-06-16 05:37:01;12.73;1012.39;1317;0;0
2022-06-16 05:38:01;12.61;1012.37;1314;0;0
2022-06-16 05:39:01;12.52;1012.35;1320;0;0
2022-06-16 05:40:02;12.69;1012.37;1340;0;0
2022-06-16 05:41:01;12.73;1012.29;1354;0;0
2022-06-16 05:42:01;12.69;1012.38;1369;0;0
2022-06-16 05:43:01;12.87;1012.42;1395;0;0
2022-06-16 05:44:02;12.88;1012.35;1425;0;0
2022-06-16 05:45:01;12.93;1012.42;1454;0;0
2022-06-16 05:46:01;13;1012.32;1467;0;0
2022-06-16 05:47:01;12.99;1012.34;1498;0;0
2022-06-16 05:48:01;13.08;1012.3;1550;0;0
2022-06-16 05:49:01;12.96;1012.32;1593;0;0
2022-06-16 05:50:01;13.04;1012.31;1626;0;0
2022-06-16 05:51:01;13.17;1012.33;1651;0;0
2022-06-16 05:52:01;13.19;1012.39;1673;0;0
2022-06-16 05:53:01;13.22;1012.38;1699;0;0
2022-06-16 05:54:01;13.26;1012.49;1731;0;0
2022-06-16 05:55:01;13.46;1012.36;1766;0;0
2022-06-16 05:56:01;13.49;1012.46;1769;0;0
2022-06-16 05:57:01;13.59;1012.44;1759;0;0
2022-06-16 05:58:01;13.55;1012.43;1753;0;0
2022-06-16 05:59:01;13.59;1012.41;1762;0;0
2022-06-16 06:00:01;13.65;1012.47;1771;0;0
2022-06-16 06:01:01;13.73;1012.47;1760;0;0
2022-06-16 06:02:01;13.6;1012.46;1721;0;0
2022-06-16 06:03:01;13.61;1012.45;1654;0;0
2022-06-16 06:04:01;13.76;1012.47;1590;0;0
2022-06-16 06:05:01;13.67;1012.41;1547;0;0
2022-06-16 06:06:01;13.77;1012.42;1560;0;0
2022-06-16 06:07:01;13.67;1012.49;1557;0;0
2022-06-16 06:08:01;13.74;1012.44;1509;0;0
2022-06-16 06:09:01;13.78;1012.46;1478;0;0
2022-06-16 06:10:02;14.03;1012.4;1407;0;0
2022-06-16 06:11:01;13.72;1012.49;1386;0;0
2022-06-16 06:12:02;13.59;1012.52;1353;0;0
2022-06-16 06:13:01;13.78;1012.53;1324;0;0
2022-06-16 06:14:01;13.59;1012.52;1324;0;0
2022-06-16 06:15:01;13.67;1012.44;1354;0;0
2022-06-16 06:16:01;13.74;1012.47;1400;0;0
2022-06-16 06:17:01;13.84;1012.53;1426;0;0
2022-06-16 06:18:01;13.75;1012.43;1398;0;0
2022-06-16 06:19:01;13.64;1012.47;1399;0;0
2022-06-16 06:20:01;13.75;1012.49;1429;0;0
2022-06-16 06:21:02;13.72;1012.5;1485;0;0
2022-06-16 06:22:01;13.66;1012.54;1551;0;0
2022-06-16 06:23:01;13.74;1012.59;1621;0;0
2022-06-16 06:24:01;13.82;1012.59;1665;0;0
2022-06-16 06:25:01;13.9;1012.63;1701;0;0
2022-06-16 06:26:01;13.99;1012.65;1741;0;0
2022-06-16 06:27:01;13.85;1012.68;1780;0;0
2022-06-16 06:28:01;14.16;1012.64;1808;0;0
2022-06-16 06:29:01;14.23;1012.65;1831;0;0
2022-06-16 06:30:01;14.25;1012.65;1834;0;0
2022-06-16 06:31:01;14.4;1012.67;1852;0;0
2022-06-16 06:32:01;14.42;1012.7;1869;0;0
2022-06-16 06:33:02;14.58;1012.77;1890;0;0
2022-06-16 06:34:01;14.58;1012.8;1936;0;0
2022-06-16 06:35:01;14.69;1012.85;1966;0;0
2022-06-16 06:36:01;14.78;1012.82;1942;0;0
2022-06-16 06:37:01;14.82;1012.71;1869;0;0
2022-06-16 06:38:01;15.01;1012.72;1676;0;0
2022-06-16 06:39:02;14.98;1012.64;1566;0;0
2022-06-16 06:40:01;14.89;1012.63;1543;0;0
2022-06-16 06:41:02;15;1012.59;1551;0;0
2022-06-16 06:42:01;15.05;1012.61;1574;0;0
2022-06-16 06:43:01;14.75;1012.65;1607;0;0
2022-06-16 06:44:01;14.79;1012.61;1641;0;0
2022-06-16 06:45:01;14.7;1012.65;1672;0;0
2022-06-16 06:46:01;14.76;1012.68;1702;0;0
2022-06-16 06:47:01;15.09;1012.67;1733;0;0
2022-06-16 06:48:01;14.91;1012.64;1763;0;0
2022-06-16 06:49:01;15.04;1012.65;1793;0;0
2022-06-16 06:50:01;14.97;1012.62;1834;0;0
2022-06-16 06:51:01;15.06;1012.64;1870;0;0
2022-06-16 06:52:01;15.1;1012.62;1907;0;0
2022-06-16 06:53:01;15.21;1012.56;1942;0;0
2022-06-16 06:54:01;15.19;1012.52;1986;0;0
2022-06-16 06:55:01;15.23;1012.49;2031;0;0
2022-06-16 06:56:01;15.29;1012.56;2068;0;0
2022-06-16 06:57:01;15.32;1012.61;2117;0;0
2022-06-16 06:58:01;15.53;1012.58;2154;0;0
2022-06-16 06:59:01;15.64;1012.53;2196;0;0
2022-06-16 07:00:02;15.77;1012.57;2222;0;0
2022-06-16 07:01:01;16.02;1012.54;2219;0;0
2022-06-16 07:02:01;16.23;1012.6;2152;0;0
2022-06-16 07:03:01;16.16;1012.55;2109;0;0
2022-06-16 07:04:01;16.25;1012.52;2096;0;0
2022-06-16 07:05:02;16.29;1012.57;2107;0;0
2022-06-16 07:06:01;16.5;1012.55;2116;0;0
2022-06-16 07:07:01;16.78;1012.51;2042;0;0
2022-06-16 07:08:01;16.71;1012.54;2000;0;0
2022-06-16 07:09:01;16.77;1012.52;1971;0;0
2022-06-16 07:10:01;16.74;1012.55;1963;0;0
2022-06-16 07:11:01;16.56;1012.56;1958;0;0
2022-06-16 07:12:01;16.5;1012.57;1915;0;0
2022-06-16 07:13:01;16.56;1012.62;1888;0;0
2022-06-16 07:14:01;16.5;1012.64;1873;0;0
2022-06-16 07:15:01;16.54;1012.59;1853;0;0
2022-06-16 07:16:01;16.64;1012.59;1814;0;0
2022-06-16 07:17:01;16.68;1012.63;1765;0;0
2022-06-16 07:18:01;16.48;1012.6;1730;0;0
2022-06-16 07:19:01;16.45;1012.61;1705;0;0
2022-06-16 07:20:01;16.38;1012.63;1683;0;0
2022-06-16 07:21:01;16.41;1012.56;1679;0;0
2022-06-16 07:22:02;16.21;1012.61;1726;0;0
2022-06-16 07:23:01;16.28;1012.55;1814;0;0
2022-06-16 07:24:01;16.32;1012.53;1903;0;0
2022-06-16 07:25:01;16.51;1012.61;1971;0;0
2022-06-16 07:26:01;16.56;1012.55;2046;0;0
2022-06-16 07:27:02;16.49;1012.59;2119;0;0
2022-06-16 07:28:01;16.65;1012.46;2183;0;0
2022-06-16 07:29:01;16.89;1012.41;2261;0;0
2022-06-16 07:30:01;17.1;1012.54;2265;0;0
2022-06-16 07:31:01;17.44;1012.5;2258;0;0
2022-06-16 07:32:01;17.74;1012.43;2246;0;0
2022-06-16 07:33:01;17.99;1012.54;2257;0;0
2022-06-16 07:34:02;18.29;1012.57;2268;0;0
2022-06-16 07:35:01;18.36;1012.58;2281;0;0
2022-06-16 07:36:01;18.39;1012.55;2289;0;0
2022-06-16 07:37:01;18.52;1012.55;2324;0;0
2022-06-16 07:38:01;18.49;1012.56;2314;0;0
2022-06-16 07:39:01;18.76;1012.55;2276;0;0
2022-06-16 07:40:02;18.86;1012.56;2273;0;0
2022-06-16 07:41:01;18.95;1012.57;2195;0;0
2022-06-16 07:42:01;19.16;1012.61;2110;0;0
2022-06-16 07:43:01;19.07;1012.64;2073;0;0
2022-06-16 07:44:01;19.01;1012.63;2019;0;0
2022-06-16 07:45:01;18.9;1012.61;1940;0;0
2022-06-16 07:46:01;18.63;1012.63;1888;0;0
2022-06-16 07:47:01;18.72;1012.59;1863;0;0
2022-06-16 07:48:01;18.68;1012.58;1848;0;0
2022-06-16 07:49:01;18.5;1012.63;1841;0;0
2022-06-16 07:50:01;18.41;1012.65;1836;0;0
2022-06-16 07:51:01;18.32;1012.6;1818;0;0
2022-06-16 07:52:01;18.03;1012.63;1768;0;0
2022-06-16 07:53:01;18.1;1012.61;1731;0;0
2022-06-16 07:54:01;18.15;1012.57;1733;0;0
2022-06-16 07:55:01;18.11;1012.62;1751;0;0
2022-06-16 07:56:01;18.04;1012.62;1762;0;0
2022-06-16 07:57:01;17.91;1012.6;1755;0;0
2022-06-16 07:58:01;17.73;1012.62;1747;0;0
2022-06-16 07:59:01;18;1012.6;1724;0;0
2022-06-16 08:00:01;17.97;1012.54;1700;0;0
2022-06-16 08:01:01;17.93;1012.62;1704;0;0
2022-06-16 08:02:01;17.79;1012.6;1727;0;0
2022-06-16 08:03:02;17.76;1012.61;1770;0;0
2022-06-16 08:04:01;17.72;1012.48;1822;0;0
2022-06-16 08:05:01;17.87;1012.47;1872;0;0
2022-06-16 08:06:01;17.86;1012.41;1907;0;0
2022-06-16 08:07:01;17.93;1012.43;1932;0;0
2022-06-16 08:08:02;17.82;1012.49;1964;0;0
2022-06-16 08:09:01;17.99;1012.52;1985;0;0
2022-06-16 08:10:01;18.07;1012.56;1956;0;0
2022-06-16 08:11:01;18.16;1012.58;1885;0;0
2022-06-16 08:12:01;18.08;1012.61;1853;0;0
2022-06-16 08:13:01;18.05;1012.61;1847;0;0
2022-06-16 08:14:01;17.99;1012.65;1844;0;0
2022-06-16 08:15:01;18.06;1012.64;1840;0;0
2022-06-16 08:16:01;17.93;1012.66;1837;0;0
2022-06-16 08:17:01;18.03;1012.67;1839;0;0
2022-06-16 08:18:01;17.89;1012.68;1845;0;0
2022-06-16 08:19:01;18.05;1012.64;1855;0;0
2022-06-16 08:20:01;17.96;1012.68;1874;0;0
2022-06-16 08:21:01;17.9;1012.7;1895;0;0
2022-06-16 08:22:01;17.96;1012.68;1907;0;0
2022-06-16 08:23:01;18.15;1012.61;1924;0;0
2022-06-16 08:24:01;18.08;1012.6;1957;0;0
2022-06-16 08:25:01;18.08;1012.61;1984;0;0
2022-06-16 08:26:02;18.17;1012.58;1974;0;0
2022-06-16 08:27:01;18.11;1012.6;1979;0;0
2022-06-16 08:28:01;18.29;1012.6;2020;0;0
2022-06-16 08:29:01;18.26;1012.58;2092;0;0
2022-06-16 08:30:02;18.46;1012.61;2123;0;0
2022-06-16 08:31:01;18.37;1012.58;2110;0;0
2022-06-16 08:32:02;18.42;1012.61;2112;0;0
2022-06-16 08:33:01;18.42;1012.63;2135;0;0
2022-06-16 08:34:01;18.39;1012.6;2242;0;0
2022-06-16 08:35:01;18.46;1012.67;2333;0;0
2022-06-16 08:36:01;18.65;1012.64;2390;0;0
2022-06-16 08:37:01;19.1;1012.58;2361;0;0
2022-06-16 08:38:01;19.25;1012.52;2375;0;0
2022-06-16 08:39:02;19.38;1012.53;2400;0;0
2022-06-16 08:40:01;19.51;1012.53;2383;0;0
2022-06-16 08:41:01;19.78;1012.56;2356;0;0
2022-06-16 08:42:01;19.9;1012.59;2346;0;0
2022-06-16 08:43:01;19.93;1012.59;2349;0;0
2022-06-16 08:44:01;19.83;1012.64;2343;0;0
2022-06-16 08:45:01;19.88;1012.54;2317;0;0
2022-06-16 08:46:01;19.79;1012.6;2289;0;0
2022-06-16 08:47:01;19.83;1012.62;2259;0;0
2022-06-16 08:48:02;19.89;1012.67;2194;0;0
2022-06-16 08:49:01;19.75;1012.68;2144;0;0
2022-06-16 08:50:01;19.63;1012.68;2097;0;0
2022-06-16 08:51:01;19.63;1012.66;2070;0;0
2022-06-16 08:52:01;19.55;1012.65;2061;0;0
2022-06-16 08:53:01;19.54;1012.61;2076;0;0
2022-06-16 08:54:01;19.52;1012.66;2116;0;0
2022-06-16 08:55:01;19.57;1012.6;2179;0;0
2022-06-16 08:56:01;19.62;1012.58;2234;0;0
2022-06-16 08:57:01;19.52;1012.59;2254;0;0
2022-06-16 08:58:01;19.64;1012.6;2238;0;0
2022-06-16 08:59:01;19.55;1012.62;2220;0;0
2022-06-16 09:00:01;19.53;1012.68;2255;0;0
2022-06-16 09:01:01;19.74;1012.67;2343;0;0
2022-06-16 09:02:02;19.97;1012.69;2364;0;0
2022-06-16 09:03:01;20.03;1012.68;2282;0;0
2022-06-16 09:04:01;20.15;1012.68;2218;0;0
2022-06-16 09:05:01;20.23;1012.7;2230;0;0
2022-06-16 09:06:01;20.46;1012.72;2299;0;0
2022-06-16 09:07:01;20.42;1012.7;2371;0;0
2022-06-16 09:08:01;20.37;1012.65;2423;0;0
2022-06-16 09:09:01;20.51;1012.6;2460;0;0
2022-06-16 09:10:02;20.64;1012.69;2432;0;0
2022-06-16 09:11:01;21.09;1012.66;2384;0;0
2022-06-16 09:12:01;21.2;1012.62;2380;0;0
2022-06-16 09:13:01;21.07;1012.73;2427;0;0
2022-06-16 09:14:01;21.05;1012.73;2455;0;0
2022-06-16 09:15:02;21.18;1012.74;2460;0;0
2022-06-16 09:16:01;20.91;1012.66;2488;0;0
2022-06-16 09:17:01;21.17;1012.73;2517;0;0
2022-06-16 09:18:01;21.44;1012.69;2463;0;0
2022-06-16 09:19:02;21.43;1012.74;2404;0;0
2022-06-16 09:20:01;21.55;1012.69;2314;0;0
2022-06-16 09:21:01;21.63;1012.71;2246;0;0
2022-06-16 09:22:01;21.6;1012.65;2179;0;0
2022-06-16 09:23:01;21.45;1012.66;2121;0;0
2022-06-16 09:24:01;21.3;1012.63;2087;0;0
2022-06-16 09:25:01;21.14;1012.63;2061;0;0
2022-06-16 09:26:01;20.98;1012.69;2040;0;0
2022-06-16 09:27:01;20.72;1012.69;2024;0;0
2022-06-16 09:28:01;20.73;1012.68;2005;0;0
2022-06-16 09:29:01;20.63;1012.65;1997;0;0
2022-06-16 09:30:01;20.75;1012.64;2002;0;0
2022-06-16 09:31:01;20.76;1012.63;1995;0;0
2022-06-16 09:32:02;20.71;1012.64;1976;0;0
2022-06-16 09:33:01;20.62;1012.62;1979;0;0
2022-06-16 09:34:01;20.58;1012.64;2000;0;0